Temp
17 16 15 16 16 16 16 17 17 17 17 16 16 16 15 15 15 15 15 15 15 14 14 14 14 13 14 13 13 13 14 14 15 15 15 15 14 14 13 13 13 13 13
17 16 16 15 16 16 16 17 17 17 16 17 17 16 15 15 15 15 14 15 14 14 14 13 13 13 13 13 13 13 13 13 13 14 14 14 14 14 14 13 13 13 13
17 17 16 16 15 16 16 16 17 16 16 16 17 16 15 15 15 14 14 14 15 14 14 14 14 14 13 13 13 12 12 12 13 13 13 13 13 13 13 13 12 12 13
18 18 17 16 16 15 16 16 16 16 16 16 16 16 16 16 15 14 14 14 14 14 14 14 14 13 13 13 13 12 12 11 12 12 12 12 13 13 13 13 12 13 12
18 18 17 17 16 16 16 16 16 16 16 16 16 17 16 16 15 14 14 14 14 14 14 14 14 13 13 13 13 12 12 11 11 11 11 12 12 13 13 13 12 13 12
18 17 17 17 17 16 16 16 16 16 16 16 15 16 16 16 15 15 14 14 14 13 13 13 13 13 13 13 12 12 12 11 11 11 11 12 12 12 12 12 12 12 12
17 18 17 17 17 17 16 16 16 16 16 15 15 14 14 15 16 16 15 15 14 13 13 13 13 13 12 12 12 12 12 12 11 11 11 11 12 12 12 12 12 12 12
17 17 18 18 17 17 16 16 16 15 15 15 15 14 11 13 14 15 15 15 14 14 13 13 13 12 12 12 12 12 12 11 11 11 11 11 12 12 12 12 12 12 12
17 17 17 18 17 17 17 17 16 16 16 15 15 16 11 11 12 13 14 15 14 14 14 13 13 12 12 12 12 11 11 11 11 12 11 11 11 12 12 12 12 12 12
17 17 18 17 17 17 17 17 17 16 17 15 15 15 15 15 11 11 13 13 14 14 14 13 13 13 12 12 12 11 11 11 11 12 12 11 11 11 11 11 11 11 11
17 17 17 17 17 17 17 17 17 16 16 16 15 15 14 14 14 12 11 12 13 14 14 14 14 13 12 12 12 12 11 11 11 11 12 12 11 11 11 11 11 11 11
16 17 17 18 17 17 17 16 17 16 16 16 16 15 15 14 13 13 11 11 12 13 14 13 13 13 13 12 12 12 11 11 11 11 11 11 12 11 11 11 10 10 10
15 16 16 17 17 17 17 17 16 16 16 15 16 15 15 15 15 15 14 11 11 13 13 13 13 13 13 13 13 12 12 11 11 11 11 11 11 12 11 11 11 10 9
15 15 16 16 16 16 16 16 16 16 15 15 15 15 15 15 15 15 15 13 10 11 11 13 14 14 13 13 13 13 12 12 11 11 11 11 11 11 11 11 11 10 9
15 14 14 15 15 15 16 15 15 16 15 15 14 15 14 15 14 14 14 14 14 11 10 14 14 15 15 13 13 13 12 12 11 11 11 11 11 11 11 11 11 10 10
14 14 14 14 14 14 15 15 15 15 14 14 15 14 14 14 14 13 13 13 14 14 12 14 16 15 15 15 13 12 12 12 11 11 11 11 11 11 11 11 10 10 10
14 14 14 14 13 13 14 14 14 14 15 14 13 15 14 14 13 13 13 12 13 13 12 14 14 15 15 15 14 13 12 11 11 11 11 11 11 11 11 10 10 10 10
14 14 14 14 14 14 14 13 13 13 13 12 13 13 13 14 13 13 13 12 12 12 12 12 13 14 15 14 14 13 12 11 11 11 11 11 11 11 11 10 10 10 10
13 13 13 13 13 14 13 13 12 12 12 13 13 13 13 13 13 13 13 11 12 12 12 11 12 13 14 14 13 13 12 11 11 11 10 10 10 10 11 11 10 10 10
11 12 12 13 13 13 13 13 13 12 12 12 12 13 13 12 12 12 12 12 11 11 11 11 11 12 12 12 12 12 12 12 12 11 11 10 10 10 10 10 10 10 10
11 11 11 11 12 12 13 12 12 12 12 12 12 13 12 12 12 12 11 11 11 11 10 10 9 10 10 10 11 12 11 11 11 11 11 11 11 11 11 10 10 10 10
10 10 11 11 11 12 12 12 12 12 12 12 11 11 11 11 11 11 11 11 11 11 10 10 10 9 9 10 11 11 11 10 9 12 11 12 11 11 11 11 10 10 10
8 10 10 11 11 11 12 11 11 11 11 10 10 10 11 10 11 11 11 11 11 11 11 10 10 9 10 10 12 11 11 10 11 11 10 10 11 11 11 10 10 10 9
5 8 9 10 11 11 11 11 10 10 10 10 10 11 10 10 10 11 10 10 10 10 10 11 10 11 10 10 10 11 12 11 9 10 9 9 11 10 11 11 10 10 9
4 6 7 9 10 10 10 10 9 8 9 9 10 10 11 11 11 10 10 10 10 10 11 10 10 10 10 11 11 11 9 9 8 9 10 8 9 10 10 9 9 9 8
3 5 6 8 9 9 10 10 8 9 9 9 9 9 9 10 10 10 10 10 10 10 10 10 10 9 10 10 10 11 11 10 9 8 10 8 9 9 8 8 8 8 8
Height
852 855 857 859 862 864 866 868 871 873 875 877 879 879 881 882 883 884 885 886 887 887 889 889 889 889 888 888 888 888 888 887 887 886 885 884 883 884 884 883 883 882 881
851 854 857 860 863 865 868 869 872 874 877 878 880 882 883 885 886 887 888 889 889 890 890 891 891 891 891 891 891 891 890 890 890 890 889 888 887 886 886 886 886 885 884
851 854 856 859 863 866 869 871 873 875 877 879 881 883 885 886 889 890 890 891 892 892 892 893 893 893 894 894 894 893 893 893 893 892 892 891 891 890 889 888 888 888 887
851 854 856 859 863 866 870 872 874 876 878 880 881 884 886 888 890 892 893 894 894 894 894 895 895 895 895 895 895 895 895 895 894 894 894 893 893 893 893 892 891 891 890
850 852 855 858 862 866 869 872 875 876 878 880 882 884 887 890 891 893 895 895 896 896 896 897 897 897 897 897 897 897 897 896 896 896 896 896 895 895 895 895 895 894 893
848 851 854 858 861 864 868 871 874 876 878 880 883 885 887 889 891 893 895 896 897 897 897 898 897 897 898 898 898 898 898 898 898 897 897 897 897 896 896 897 897 897 895
845 849 852 857 860 863 865 869 873 876 878 880 882 885 886 888 890 892 894 895 897 897 898 898 898 898 898 899 899 898 898 899 899 899 899 898 898 898 898 898 898 899 898
843 847 850 854 857 861 865 867 871 874 877 880 881 884 888 889 888 889 891 893 895 896 897 898 898 898 898 899 899 899 899 899 900 900 900 900 900 899 899 899 899 900 900
841 845 848 851 854 857 861 864 867 871 873 877 879 881 887 887 886 887 889 890 892 893 895 896 897 898 898 898 899 899 899 899 900 900 901 901 901 901 901 901 901 901 901
839 842 845 848 851 854 857 861 864 867 870 872 877 878 879 879 885 887 887 888 889 890 891 892 894 895 896 897 898 898 899 899 900 900 901 901 902 902 902 902 903 903 903
835 838 841 844 847 850 853 857 861 864 867 869 871 875 877 878 880 882 885 885 886 886 887 888 890 892 893 895 896 897 898 898 899 900 901 901 902 902 902 903 904 904 904
831 834 837 840 843 846 849 853 857 860 863 866 868 871 872 876 877 879 882 882 882 883 885 886 886 888 889 891 892 894 896 897 897 898 900 900 901 902 902 903 903 904 904
827 830 833 836 838 842 845 849 852 856 859 862 864 867 870 872 873 876 878 880 881 882 883 882 883 884 886 887 888 890 892 894 895 896 898 899 899 901 902 902 903 903 904
823 826 829 833 835 839 843 846 848 851 854 857 860 864 866 868 870 872 875 876 880 880 880 879 879 879 881 883 885 886 888 890 892 894 895 896 897 898 900 901 901 902 903
819 822 826 829 832 835 839 841 843 846 849 853 857 859 862 863 866 868 871 873 875 878 877 875 876 876 876 878 880 882 884 886 888 890 892 894 895 896 897 899 900 900 902
816 819 821 824 827 830 833 836 838 842 845 847 850 854 856 859 861 864 867 869 871 873 873 872 873 874 874 875 876 878 879 882 883 885 887 890 892 893 895 896 897 898 899
812 814 817 819 821 825 828 831 833 837 840 842 845 848 852 855 857 859 862 864 866 868 869 869 870 871 871 873 873 873 875 877 879 881 883 884 887 889 890 892 894 894 896
807 809 811 813 816 819 823 826 828 831 834 837 839 843 846 849 852 854 856 858 860 862 865 865 865 867 868 868 870 870 871 873 874 876 877 879 881 883 885 887 889 890 892
803 804 806 807 810 813 817 821 823 826 829 832 834 837 840 843 845 847 848 851 854 856 858 860 860 862 863 864 866 867 867 869 870 872 873 874 876 878 880 881 883 885 886
799 801 802 803 805 808 812 816 819 821 824 827 829 832 834 836 838 840 842 844 846 848 850 853 855 856 857 859 861 863 864 865 866 868 869 870 871 872 874 876 877 879 881
795 797 799 801 802 804 807 811 815 817 819 822 824 826 827 830 832 834 836 837 839 841 843 846 848 849 851 853 854 856 859 860 862 863 865 865 867 867 867 870 872 873 875
791 793 794 796 798 800 803 806 809 811 813 815 817 819 821 823 825 827 829 831 833 834 834 836 839 840 842 844 847 850 855 856 859 858 861 860 862 862 862 864 866 869 871
788 789 789 791 793 795 798 800 803 805 807 809 811 813 815 816 818 819 821 822 824 825 828 830 831 833 836 836 840 844 847 851 851 855 857 857 858 858 859 860 862 863 865
787 784 784 786 788 790 792 794 796 798 800 802 804 806 808 810 810 812 813 815 817 818 820 823 825 828 831 833 835 840 843 845 849 850 854 855 854 855 855 855 856 858 860
785 784 781 781 782 784 786 789 791 792 793 795 797 799 801 803 804 806 807 808 810 811 814 817 819 824 828 831 835 837 839 843 845 845 846 851 849 850 851 851 851 854 856
785 782 777 777 777 778 780 782 785 787 787 789 790 792 794 796 798 801 802 802 804 806 809 812 814 819 822 825 829 832 834 836 838 841 840 845 844 848 848 846 846 849 851
Wind_Speed
19 20 21 19 18 17 18 19 20 16 13 11 15 15 14 13 12 11 11 11 7 10 6 7 8 8 8 9 9 9 9 8 6 9 13 12 14 15 16 17 16 16 16
17 17 20 20 20 17 16 21 22 15 12 11 10 13 14 14 12 11 8 8 9 6 8 9 9 8 7 7 7 7 7 6 7 7 9 11 12 14 14 14 15 16 16
17 16 17 20 19 19 20 23 17 13 11 11 11 13 13 10 5 9 9 6 6 3 9 4 6 4 5 4 5 6 6 5 5 5 7 9 11 12 13 14 15 14 14
18 16 16 18 21 22 22 22 19 12 11 15 17 13 9 4 3 8 5 5 5 2 4 5 4 3 3 3 4 5 5 5 5 4 5 6 8 9 10 13 14 13 12
21 20 19 18 22 24 22 22 18 14 16 18 17 14 9 5 5 3 4 4 3 3 4 4 1 1 1 3 4 3 3 4 4 4 6 6 3 4 3 6 8 9 10
26 23 20 20 21 23 23 23 19 13 18 17 17 16 12 7 5 5 6 5 5 5 5 5 3 4 3 2 1 1 1 2 3 2 3 3 5 1 3 2 5 6 8
27 27 24 22 23 25 25 24 19 15 16 18 19 12 9 9 8 7 7 6 6 7 7 8 6 6 6 4 4 1 1 1 1 2 2 3 3 3 4 4 4 6 7
27 28 27 26 25 25 26 25 24 19 17 21 10 10 1 2 8 10 11 10 9 10 10 9 9 9 8 7 7 4 5 2 2 1 1 1 2 4 5 5 5 5 6
28 28 29 27 27 29 28 25 28 24 23 25 13 6 2 4 3 9 14 15 13 15 13 12 11 10 10 9 8 7 4 6 4 5 1 1 1 2 2 3 5 4 4
26 28 30 31 31 31 31 29 31 29 27 25 19 14 5 8 3 1 10 18 17 19 17 17 15 14 13 12 11 9 7 6 6 5 5 3 3 3 2 1 2 3 3
25 28 28 29 31 32 33 31 30 29 29 28 26 21 10 10 6 3 2 6 21 21 22 20 18 16 16 15 14 13 11 9 8 8 7 6 5 5 5 2 2 1 1
28 26 28 31 30 35 33 34 29 31 31 31 29 26 23 11 9 5 2 4 11 16 25 23 23 21 19 17 17 16 15 14 12 11 10 8 7 6 6 5 4 3 3
27 29 27 29 29 32 31 31 31 30 33 30 31 31 30 26 18 17 8 4 6 11 9 22 27 25 24 23 19 18 18 17 16 14 12 12 11 10 10 8 7 5 4
26 29 30 31 33 30 31 31 33 30 34 32 32 31 30 31 27 22 18 10 1 4 10 11 11 26 30 27 25 21 20 18 19 18 16 15 10 12 12 11 10 9 6
21 26 28 30 30 31 32 31 30 31 29 29 33 30 33 30 28 26 23 20 17 3 4 11 13 15 16 26 28 24 24 21 20 21 20 18 18 13 15 13 12 12 11
21 21 24 31 32 31 33 32 28 30 29 30 29 30 31 30 29 28 25 24 23 20 5 13 17 16 13 14 21 24 24 23 22 21 21 21 21 21 16 15 15 15 14
21 25 26 27 29 32 30 32 32 29 29 31 30 29 31 30 29 28 27 26 26 24 17 16 16 16 18 17 13 18 22 24 22 22 21 21 20 22 22 20 19 19 16
21 25 29 31 28 28 30 31 31 31 31 29 31 30 30 28 29 29 29 30 29 30 26 21 22 23 21 23 17 16 18 21 22 23 23 22 23 23 24 24 21 20 20
18 21 24 28 30 29 27 25 27 29 30 31 30 30 31 30 32 32 31 29 29 29 31 25 23 22 24 23 21 20 20 20 20 20 21 23 24 23 23 24 25 24 23
21 17 19 23 26 25 24 24 24 25 26 28 28 29 30 31 31 30 29 30 30 28 29 27 25 25 21 23 20 21 22 22 21 20 21 20 22 24 25 25 25 25 25
19 21 21 19 21 21 22 22 23 25 27 28 29 29 29 30 31 31 28 29 29 27 25 24 20 22 22 20 27 28 26 22 19 19 22 21 21 22 24 26 26 25 25
13 18 22 24 24 23 25 25 27 29 30 31 29 30 30 29 30 32 33 34 32 31 26 24 22 22 26 32 33 29 22 14 5 17 20 22 20 23 21 22 23 23 23
10 18 20 21 23 25 25 26 27 28 28 28 28 28 28 30 31 33 31 31 35 32 35 30 24 25 24 36 32 26 22 21 18 12 9 15 14 17 18 18 20 21 21
14 9 19 25 28 29 28 28 28 27 29 28 29 30 29 28 28 29 26 26 29 29 33 32 30 26 30 29 26 23 26 23 17 18 15 8 14 13 10 11 14 17 19
19 14 10 19 23 30 28 26 27 26 27 30 31 30 27 27 27 22 23 23 25 27 25 29 33 25 25 22 21 19 20 16 13 16 19 17 11 10 9 10 11 14 16
20 18 13 14 21 27 28 23 22 24 24 26 28 30 29 27 27 25 25 23 24 24 22 21 23 27 28 24 21 20 22 23 16 9 17 19 15 12 6 8 10 11 12
Wind_Direction
159 164 170 169 166 162 166 166 169 162 147 124 157 148 135 124 109 124 115 110 104 105 97 94 102 86 88 79 83 106 106 100 88 88 75 77 86 77 71 65 59 59 59
166 166 173 178 176 166 164 160 161 160 150 146 146 154 141 131 118 126 126 131 113 85 113 97 94 99 76 84 77 87 105 108 99 104 94 66 82 83 73 68 62 57 58
178 175 176 182 178 171 164 165 169 171 162 165 155 159 150 126 115 136 121 125 119 103 123 85 116 105 82 67 80 79 87 87 97 88 79 89 80 82 83 77 68 62 63
192 187 181 182 180 178 175 177 181 189 171 171 150 156 149 131 127 137 126 129 129 140 144 107 88 75 81 77 75 75 77 73 79 90 77 88 86 68 65 67 64 58 69
203 199 189 181 178 182 184 187 191 200 179 172 166 161 149 164 150 158 172 166 164 186 172 163 206 143 159 102 91 65 67 74 69 66 63 53 102 112 61 48 50 65 73
210 206 199 188 182 184 190 194 195 196 191 178 175 168 168 181 197 198 196 216 213 220 218 242 241 177 186 196 304 254 309 43 64 56 74 77 43 89 44 33 54 70 78
213 210 208 197 194 193 195 198 197 203 194 181 159 163 178 186 199 220 231 235 238 226 235 256 238 219 216 234 239 258 207 253 82 46 35 59 54 59 65 72 91 92 80
221 214 213 208 204 202 202 204 203 201 197 185 179 144 97 233 208 215 214 235 236 239 245 259 241 239 241 236 247 270 217 216 232 304 65 83 88 81 83 82 99 105 87
218 220 218 216 213 207 206 209 206 208 197 197 192 169 145 211 191 219 221 220 219 230 244 252 250 247 245 245 245 248 250 237 217 248 241 221 201 136 158 119 99 119 99
216 219 224 222 221 215 210 210 211 213 211 197 198 208 204 154 171 228 227 225 228 226 233 242 250 252 249 249 247 247 248 251 214 231 245 247 231 220 235 182 175 142 103
219 221 223 228 223 220 216 216 216 218 216 215 202 203 193 176 181 137 195 223 230 233 233 235 246 253 254 252 250 249 247 244 240 225 249 238 233 226 190 211 167 201 248
228 225 226 228 231 225 224 222 222 224 220 223 224 213 211 197 199 178 152 218 222 239 239 241 240 243 253 255 255 254 253 250 247 236 239 241 231 235 224 218 226 229 236
226 228 228 233 227 229 226 227 231 227 224 228 227 226 229 227 225 220 206 178 229 238 253 245 245 246 246 250 255 257 255 251 247 244 241 243 227 233 240 244 237 239 253
229 227 231 233 235 236 235 240 235 233 233 234 233 235 242 237 233 235 226 196 198 250 239 246 261 249 249 246 249 256 256 254 249 246 241 237 247 231 240 243 240 250 236
241 233 232 234 239 234 240 234 231 240 236 239 233 240 242 244 243 242 238 244 233 210 244 253 243 262 265 249 249 252 247 253 251 247 246 244 235 235 240 242 241 247 266
239 245 241 240 240 238 241 237 233 242 239 238 239 240 242 248 249 249 243 243 245 243 252 267 252 259 268 265 251 248 246 248 251 248 249 248 243 238 239 240 241 249 259
241 244 242 241 238 237 236 242 236 236 241 240 238 242 243 251 254 252 251 245 243 245 243 256 258 268 258 253 250 242 242 243 246 246 249 247 244 239 236 234 236 243 251
245 247 244 237 237 234 235 238 234 236 241 238 242 240 241 244 250 255 254 251 245 246 242 252 259 258 253 245 245 240 236 238 241 244 246 244 242 239 239 237 239 239 243
248 243 240 234 231 229 227 238 241 239 241 244 243 243 245 245 246 245 246 245 247 250 249 243 250 250 240 240 241 240 237 238 242 245 247 246 243 242 242 241 240 239 241
241 244 239 236 228 223 225 232 236 240 242 246 248 249 250 248 249 249 245 248 249 244 243 235 234 236 234 233 239 246 242 242 245 247 250 250 246 242 242 243 241 240 241
238 236 236 230 227 224 225 230 239 244 247 247 247 247 249 251 255 257 246 244 244 236 230 223 218 221 224 223 229 238 241 243 250 253 256 252 249 244 241 242 244 244 243
249 235 229 229 232 234 237 240 243 245 246 247 247 251 252 253 255 256 257 250 245 234 222 216 216 211 217 224 230 232 230 225 260 263 251 257 250 247 246 244 246 249 248
290 252 242 237 236 237 241 244 245 246 248 248 249 246 249 251 253 254 252 254 245 237 242 235 221 216 222 228 226 220 227 231 229 239 248 262 261 253 252 249 248 246 246
319 301 256 245 242 242 243 244 247 241 242 248 250 253 250 243 248 248 250 247 250 249 241 238 236 246 237 235 223 243 248 230 242 240 250 249 256 250 251 245 243 243 242
332 308 287 259 256 252 247 247 248 238 238 244 246 249 249 251 252 248 241 247 256 255 254 250 242 243 247 243 244 242 229 221 233 239 234 230 242 251 251 239 238 238 238
325 318 298 277 258 254 252 257 236 235 240 241 244 245 249 250 253 251 246 242 232 250 235 230 232 232 237 244 241 234 235 222 213 216 231 214 226 214 204 225 224 238 239